Regional Weather Roundup
Issued by NWS Green Bay, WI

Home | Current Version | Previous Version | Graphics & Text | Print | Product List | Glossary Off
Versions: 1 2 3 4 5 6 7 8 9 10 11 12 13 14 15 16 17 18 19 20 21 22 23 24 25 26 27 28 29 30 31 32 33 34 35 36 37 38 39 40 41 42 43 44 45 46 47 48 49 50

000
ASUS43 KGRB 201001
RWRGRB

NORTH-CENTRAL AND NORTHEAST WISCONSIN REGIONAL WEATHER ROUNDUP
NATIONAL WEATHER SERVICE GREEN BAY WI
500 AM CDT SUN AUG 20 2017

WIZ005-009-010>012-018-019-201100-
NORTH CENTRAL WISCONSIN

CITY           SKY/WX    TMP DP  RH WIND       PRES   REMARKS
IRONWOOD       CLEAR     64  59  83 S9        29.92R
MANITOWISH WTR NOT AVBL
ARBOR VITAE    NOT AVBL
EAGLE RIVER    NOT AVBL
LAND O LAKES   NOT AVBL
RHINELANDER    FOG       53  53 100 SW5       29.98R VSB 1
PHILLIPS       NOT AVBL
ANTIGO         NOT AVBL
TOMAHAWK       NOT AVBL
MERRILL        NOT AVBL
$$

WIZ013-073-201100-
NORTHEAST WISCONSIN

CITY           SKY/WX    TMP DP  RH WIND       PRES   REMARKS
IRON MOUNTAIN  CLEAR     54  51  90 CALM      29.95R
MARINETTE      CLEAR     61  59  93 SW3       29.97R
$$

WIZ017-030-035>037-045-201100-
CENTRAL WISCONSIN

CITY           SKY/WX    TMP DP  RH WIND       PRES   REMARKS
MEDFORD        NOT AVBL
WAUSAU         CLEAR     55  55 100 E5        29.97R
MOSINEE        NOT AVBL
MARSHFIELD     CLOUDY    57  55  93 S5        29.98R
WISC RAPIDS    CLOUDY    59  58  96 SW3       30.00R
STEVENS POINT  NOT AVBL
WAUPACA        NOT AVBL
SHAWANO        NOT AVBL
CLINTONVILLE   NOT AVBL
WAUTOMA        NOT AVBL
$$

WIZ038-039-048-051-201100-
FOX VALLEY

CITY           SKY/WX    TMP DP  RH WIND       PRES   REMARKS
NWS GREEN BAY  CLEAR     57  57 100 CALM      29.99R FOG
APPLETON       NOT AVBL
OSHKOSH        PTCLDY    62  59  90 SW5       29.98R
FOND DU LAC    LGT RAIN  60  57  89 S5        30.00R
$$

WIZ022-050-052-201100-
EAST CENTRAL WISCONSIN

CITY           SKY/WX    TMP DP  RH WIND       PRES   REMARKS
EPHRAIM        NOT AVBL
WASHINGTON ISL NOT AVBL
STURGEON BAY   CLEAR     62  59  90 SW3       29.98
MANITOWOC      CLEAR     63  60  90 W5        30.00R
SHEBOYGAN      CLEAR     60  60 100 CALM      30.00R
$$

LMZ563-521-522-541>543-201100-
LAKESHORE

STATION/POSITION TIME  TEMP    WIND        PRES    VSBY  WAVE
                       AIR SEA DIR/SP/G                  HT/PER
                 (UTC) (F)     (DEG/KT/KT) (MB)    (MI)  (FT/S)
SHEBOYGAN LKSHOR 0900   66     200/  6/  7 1014.7F
KEWAUNEE LKSHORE 0930   65     290/  5/  6 1014.0R
NORTHPORT PIER   0940   66     240/  1/  5 1013.9S
N MID LAKE BUOY  0850   69 67  240/ 10/ 10 1014.2R         2/ 4
S GREEN BAY BUOY 0930   70 71  220/  8/ 12 1014.3R
SISTER BAY LKSHO 0918   68     240/  3/  3   N/A
MENOMINEE LKSHOR 0930   65     230/  5/  8 1014.0R
$$




USA.gov is the U.S. government's official web portal to all federal, state and local government web resources and services.